Content
SEND FEEDBACK

Daily
Averages
Monthly
Summary
United States of America

PRAIRE DU CHIEN, WISCONSIN


Home > North America > United States > Wisconsin
Elevation: 656 feet     Latitude: 43 50N     Longitude: 091 47W

WEATHER
 
SELECT A DAY
Number of Records: 370,116;   Date Range: 4/21/99 - 8/28/14
 
SHARE

PRINT THIS DATA

[ ← Previous Day ]
WEATHER ALMANAC - FEBRUARY 13, 2013
[ Next Day → ]
[ °C ]   °F
Weather ElementAverageHighLow
Temperature28.4 °F37.4 °F (1:55 pm)15.8 °F (7:15 am)
Dewpoint23.4 °F32 °F (11:15 pm)14 °F (7:15 am)
Humidity82.5 %100 % (3:35 am)65 % (1:55 pm)
Barometer29.74 in29.84 in (12:35 am)29.60 in (11:35 pm)
Wind Speed1.2 mph8.1 mph (3:35 pm)
Weather ElementAverage
Visibility8.2 mi
Wind DirectionENE (51.1 °)

Weather ElementTotal
Precipitation---
Heating Degree Days38.4 (Base 65)
Averaged from 71 records on February 13, 2013
WEATHER CONDITIONS BREAKOUT
WIND DIRECTION BREAKOUT
WEATHER BY HOUR - FEBRUARY 13, 2013
[ °C ]   °F
Local TimeTemperatureDewpointHumidityBarometerVisibilityWind DirectionWind SpeedGust SpeedPrecipitationEventsConditions
12:35 AM19.4 °F17.6 °F93 %29.84 in7.0 miCalmClear
12:55 AM19.4 °F17.6 °F93 %29.83 in5.0 miCalmClear
1:15 AM21.2 °F19.4 °F93 %29.83 in7.0 miCalmClear
1:35 AM19.4 °F17.6 °F93 %29.83 in7.0 miCalmClear
1:55 AM19.4 °F17.6 °F93 %29.83 in7.0 miCalmClear
2:15 AM21.2 °F19.4 °F93 %29.82 in7.0 miCalmClear
2:35 AM19.4 °F17.6 °F93 %29.81 in5.0 miCalmClear
2:55 AM19.4 °F17.6 °F93 %29.81 in5.0 miCalmClear
3:15 AM19.4 °F17.6 °F93 %29.81 in5.0 miCalmClear
3:35 AM17.6 °F17.6 °F100 %29.80 in5.0 miCalmClear
3:55 AM19.4 °F17.6 °F93 %29.79 in7.0 miCalmClear
4:15 AM17.6 °F17.6 °F100 %29.79 in5.0 miCalmClear
4:35 AM17.6 °F15.8 °F93 %29.79 in5.0 miCalmClear
4:55 AM17.6 °F15.8 °F93 %29.78 in5.0 miCalmClear
5:15 AM17.6 °F15.8 °F93 %29.78 in5.0 miCalmClear
5:35 AM17.6 °F15.8 °F93 %29.78 in5.0 miCalmClear
5:55 AM17.6 °F15.8 °F93 %29.78 in5.0 miCalmClear
6:15 AM17.6 °F15.8 °F93 %29.78 in7.0 miCalmClear
6:35 AM17.6 °F15.8 °F93 %29.77 in7.0 miCalmClear
6:55 AM17.6 °F15.8 °F93 %29.77 in5.0 miCalmClear
7:15 AM15.8 °F14.0 °F93 %29.78 in5.0 miCalmClear
7:35 AM15.8 °F14.0 °F93 %29.77 in5.0 miCalmClear
7:55 AM17.6 °F14.0 °F86 %29.77 in5.0 miCalmClear
8:15 AM17.6 °F15.8 °F93 %29.78 in5.0 miCalmClear
8:35 AM19.4 °F17.6 °F93 %29.77 in5.0 miCalmClear
8:55 AM21.2 °F17.6 °F86 %29.77 in5.0 miCalmClear
9:15 AM23.0 °F19.4 °F86 %29.76 in5.0 miCalmClear
9:35 AM23.0 °F21.2 °F93 %29.76 in7.0 miCalmClear
9:55 AM24.8 °F21.2 °F86 %29.76 in5.0 miCalmClear
10:15 AM26.6 °F23.0 °F86 %29.76 in10.0 miCalmClear
10:35 AM28.4 °F23.0 °F80 %29.75 in10.0 miCalmClear
10:55 AM30.2 °F23.0 °F75 %29.76 in10.0 miCalmClear
11:15 AM30.2 °F23.0 °F75 %29.76 in10.0 miCalmClear
11:35 AM32.0 °F24.8 °F75 %29.76 in10.0 miCalmClear
11:55 AM32.0 °F24.8 °F75 %29.75 in10.0 miWSW (250°)6.9 mphClear
12:15 PM33.8 °F24.8 °F70 %29.74 in10.0 miSW (230°)4.6 mphClear
12:35 PM33.8 °F26.6 °F75 %29.74 in10.0 miWSW (240°)5.8 mphClear
12:55 PM35.6 °F26.6 °F70 %29.73 in10.0 miWSW (240°)5.8 mphScattered Clouds
1:15 PM35.6 °F26.6 °F70 %29.73 in10.0 miWSW (240°)6.9 mphMostly Cloudy
1:35 PM35.6 °F26.6 °F70 %29.73 in10.0 miSW (220°)3.5 mphOvercast
1:55 PM37.4 °F26.6 °F65 %29.72 in10.0 miWSW (250°)3.5 mphOvercast
2:15 PM37.4 °F26.6 °F65 %29.72 in10.0 miWSW (250°)3.5 mphOvercast
2:35 PM37.4 °F26.6 °F65 %29.72 in10.0 miWSW (240°)3.5 mphOvercast
2:55 PM37.4 °F26.6 °F65 %29.72 in10.0 miSW (230°)4.6 mphOvercast
3:15 PM37.4 °F28.4 °F70 %29.73 in10.0 miWest (280°)5.8 mphOvercast
3:35 PM35.6 °F26.6 °F70 %29.73 in10.0 miWSW (250°)8.1 mphOvercast
3:55 PM35.6 °F28.4 °F75 %29.73 in10.0 miWest (270°)4.6 mphOvercast
4:15 PM35.6 °F28.4 °F75 %29.73 in10.0 miCalmOvercast
4:35 PM35.6 °F28.4 °F75 %29.72 in10.0 miCalmOvercast
4:55 PM35.6 °F28.4 °F75 %29.71 in10.0 miCalmOvercast
5:15 PM35.6 °F28.4 °F75 %29.71 in10.0 miCalmOvercast
5:35 PM35.6 °F28.4 °F75 %29.71 in10.0 miCalmOvercast
5:55 PM35.6 °F28.4 °F75 %29.71 in10.0 miCalmOvercast
6:15 PM35.6 °F28.4 °F75 %29.71 in10.0 miCalmOvercast
6:35 PM33.8 °F28.4 °F81 %29.71 in10.0 miCalmOvercast
6:55 PM33.8 °F28.4 °F81 %29.71 in10.0 miCalmOvercast
7:15 PM33.8 °F28.4 °F81 %29.70 in10.0 miCalmOvercast
7:35 PM35.6 °F28.4 °F75 %29.70 in10.0 miCalmScattered Clouds
7:55 PM33.8 °F28.4 °F81 %29.69 in10.0 miCalmClear
8:15 PM35.6 °F28.4 °F75 %29.68 in10.0 miEast (100°)3.5 mphMostly Cloudy
8:35 PM33.8 °F30.2 °F87 %29.67 in10.0 miESE (110°)3.5 mphOvercast
8:55 PM35.6 °F30.2 °F81 %29.67 in10.0 miCalmOvercast
9:15 PM35.6 °F30.2 °F81 %29.66 in10.0 miCalmOvercast
9:35 PM35.6 °F30.2 °F81 %29.65 in10.0 miCalmOvercast
9:55 PM35.6 °F30.2 °F81 %29.64 in10.0 miESE (110°)4.6 mphOvercast
10:15 PM35.6 °F30.2 °F81 %29.64 in10.0 miESE (120°)3.5 mphOvercast
10:35 PM35.6 °F30.2 °F81 %29.63 in10.0 miCalmRainLight Rain
10:55 PM37.4 °F30.2 °F75 %29.62 in10.0 miCalmRainLight Rain
11:15 PM37.4 °F32.0 °F81 %29.61 in10.0 miCalmOvercast
11:35 PM37.4 °F30.2 °F75 %29.60 in10.0 miCalmOvercast
11:55 PM37.4 °F30.2 °F75 %29.60 in10.0 miCalmOvercast
Hourly data recorded from KPDC, located miles away from Praire du Chien, Wisconsin







STORIES FROM OUR PARTNERS